This demonstration page uses our WeatherBlox Daily Observations layout. Learn more.

Left ArrowRight Arrow

36.19886, -115.1175

Hourly Observations for October 8, 2020

Temp ( °F °C ) Dew Point ( °F °C ) Humidity (%) Winds ( mph kmh ) Pressure ( in mb ) Visibility ( mi km ) Precip ( " mm )
12:53 am 00:53 Clear 72 22.2 26 -3.3 18 18 NW 6 9 29.84 1011 10 16 0.00 0.00
1:53 am 01:53 Clear 70 21.1 26 -3.3 19 19 NW 6 9 29.85 1011 10 16 0.00 0.00
2:53 am 02:53 Clear 70 21.1 24 -4.4 18 18 NW 6 9 29.83 1010 10 16 0.00 0.00
3:53 am 03:53 Clear 69 20.6 23 -5 17 17 NW 8 13 29.84 1010 10 16 0.00 0.00
4:53 am 04:53 Clear 69 20.6 24 -4.4 18 18 WNW 6 9 29.84 1011 10 16 0.00 0.00
5:53 am 05:53 Clear 69 20.6 27 -2.8 21 21 NW 6 9 29.85 1011 10 16 0.00 0.00
6:53 am 06:53 Sunny 68 20 26 -3.3 21 21 NNW 6 9 29.86 1011 10 16 0.00 0.00
7:53 am 07:53 Sunny 71 21.7 28 -2.2 20 20 WNW 3 6 29.88 1012 10 16 0.00 0.00
8:53 am 08:53 Sunny 77 25 27 -2.8 16 16 Calm 29.90 1012 10 16 0.00 0.00
9:53 am 09:53 Sunny 80 26.7 26 -3.3 14 14 E 3 6 29.90 1013 10 16 0.00 0.00
10:53 am 10:53 Sunny 85 29.4 19 -7.2 9 9 ESE 8 13 29.89 1012 10 16 0.00 0.00
11:53 am 11:53 Sunny 87 30.6 21 -6.1 9 9 ESE 7 11 29.87 1012 10 16 0.00 0.00
12:53 pm 12:53 Sunny 91 32.8 24 -4.4 9 9 VRB 5 7 29.84 1011 10 16 0.00 0.00
1:53 pm 13:53 Sunny 92 33.3 31 -0.6 11 11 SE 8 13 29.80 1009 10 16 0.00 0.00
2:53 pm 14:53 Sunny 95 35 33 0.6 11 11 E 10 17 29.77 1008 10 16 0.00 0.00
3:53 pm 15:53 Sunny 95 35 36 2.2 13 13 ENE 12 19 29.75 1008 10 16 0.00 0.00
4:53 pm 16:53 Sunny 95 35 38 3.3 14 14 ENE 7 11 29.74 1007 10 16 0.00 0.00
5:53 pm 17:53 Sunny 94 34.4 26 -3.3 9 9 S 13 20 29.73 1007 10 16 0.00 0.00
6:53 pm 18:53 Clear 91 32.8 16 -8.9 6 6 S 12 19 29.74 1007 10 16 0.00 0.00
7:53 pm 19:53 Clear 88 31.1 24 -4.4 10 10 SSW 8 13 29.77 1008 10 16 0.00 0.00
8:53 pm 20:53 Clear 85 29.4 24 -4.4 11 11 SSW 7 11 29.78 1008 10 16 0.00 0.00
9:53 pm 21:53 Clear 80 26.7 26 -3.3 14 14 Calm 29.79 1009 10 16 0.00 0.00
10:53 pm 22:53 Clear 79 26.1 28 -2.2 15 15 SSW 3 6 29.78 1009 10 16 0.00 0.00
11:53 pm 23:53 Clear 74 23.3 28 -2.2 18 18 NW 5 7 29.79 1009 10 16 0.00 0.00

Powered by AerisWeather